Location: ?ejeti?ky
(50.4060°N, 14.9016°E)
Time: 09:21:02
(UTC+00:00)

STARLINK-1275 - Pass Details

Date: 07 June 2020
Orbit: 549 x 550 km, 53.0° (Epoch: 11 July)

Event Time Altitude Azimuth Distance (km) Brightness Sun altitude
Exits shadow 00:26:37 12° 252° (WSW) 1,684 5.7 -14.3°
Drops below altitude 10° 00:34:33 10° 70° (ENE) 1,819 6.9 -13.8°
Enters shadow 01:33:27 -65° 262° (W) 12,170 10.3 -9.3°
Maximum altitude 02:10:11 59° 2° (N) 636 4.3 -5.6°
